CAPE
123 219 0 143 249 502 391 374 438 350 246 184 294 235 78 200 345 410 401 376 346 14 42 60 86 109 114 176 247 310 553 660 844 795 738 824 903 792 623 609 726 789 1010 1196
102 76 110 188 308 503 445 514 394 299 241 258 271 288 119 245 437 470 472 389 454 46 18 47 73 99 145 203 294 324 443 626 804 691 744 703 621 631 632 584 674 926 945 952
53 107 156 135 201 190 166 163 166 280 151 381 339 304 223 217 346 521 580 567 511 499 29 44 94 125 177 263 319 347 414 608 604 667 591 636 769 851 828 790 686 750 949 1003
179 232 217 217 235 189 390 58 52 78 289 334 326 14 207 350 457 566 623 658 619 590 531 318 109 259 344 379 364 387 464 499 466 566 651 763 786 863 939 1041 928 985 1099 1138
221 164 235 193 224 279 96 25 59 190 106 142 312 58 0 315 476 556 670 756 868 830 804 658 498 309 455 778 746 649 595 589 802 960 999 938 847 946 1078 1266 1341 1382 1509 1619
264 253 270 262 188 111 105 53 10 27 35 2 190 142 0 48 329 590 649 659 854 1021 891 972 858 725 634 528 835 1004 1047 957 910 1018 1199 1324 1414 1493 1469 1441 1494 1592 1730 1996
128 163 116 191 73 78 61 9 8 28 31 16 1 0 0 13 9 49 237 403 696 898 893 992 1008 943 816 734 743 1037 1150 1190 1039 979 1160 1343 1515 1629 1662 1709 1743 1836 1931 2341
132 122 155 139 138 100 12 6 7 2 4 0 0 0 0 0 3 11 79 204 410 384 722 963 1087 1119 1132 1035 861 859 1132 1298 1319 1352 1292 1406 1530 1550 1676 1851 1858 1875 2000 2312
107 81 125 120 23 0 0 0 0 0 3 0 0 0 0 0 2 0 0 0 0 10 448 802 939 1019 1115 1238 1243 1075 1072 1234 1393 1414 1454 1508 1630 1707 1840 2181 2222 2372 2476 2708
137 110 11 0 0 0 0 0 0 0 0 0 0 0 0 0 0 0 0 0 0 19 54 194 468 753 917 1029 1097 1135 1180 1181 1136 1324 1485 1660 2359 2376 2198 1098 1 402 1245 2912
96 73 42 0 0 0 0 0 0 0 0 0 0 0 0 0 0 0 0 1 13 38 148 285 362 446 570 552 389 489 1043 1850 2087 1864 1977 2478 2349 2276 1650 883 401 15 32 1087
75 141 135 127 44 0 0 0 0 0 0 0 0 0 0 0 49 49 116 207 258 303 416 586 749 1027 1171 1024 1089 1051 2333 2771 2854 3040 3017 2871 2853 1274 805 354 433 100 19 1843
108 201 88 0 0 0 0 0 0 0 0 0 0 1 19 29 38 38 47 47 120 266 437 564 716 1043 1570 1910 1945 1726 2529 2657 2533 1962 1718 1533 1312 977 627 400 532 1357 1940 2476
57 97 62 6 0 0 0 0 0 0 0 0 0 0 0 42 74 75 76 99 131 454 684 909 1447 1956 2050 2208 2340 2495 2687 2557 1962 1101 993 1042 911 555 387 654 1594 1757 1196 806
59 116 5 0 0 0 0 0 0 0 0 0 4 38 40 64 88 111 142 149 182 321 414 489 492 570 959 1042 1107 1339 1604 1527 711 592 408 308 259 179 111 16 632 1131 834 708
22 5 0 0 0 0 0 0 0 0 1 15 46 85 166 172 178 190 194 136 223 324 306 380 382 347 309 353 354 466 645 869 750 427 352 341 547 854 720 539 685 688 855 839
20 10 0 3 0 0 1 0 0 0 19 47 113 149 179 197 207 153 73 52 92 355 332 375 415 413 437 390 343 302 576 815 910 783 439 390 337 398 329 418 519 617 553 618
0 0 0 0 0 0 0 0 7 8 25 73 90 94 30 42 46 52 48 76 65 196 334 307 215 112 200 328 253 385 538 389 421 521 566 398 234 285 268 404 406 330 281 421
4 0 0 0 0 0 6 0 1 9 2 41 22 22 40 30 15 33 73 38 21 17 9 153 74 2 19 177 299 273 176 219 171 237 438 453 322 419 408 384 97 41 269 287
0 0 2 2 6 0 0 11 27 23 4 0 31 49 37 21 30 7 37 41 28 2 0 0 19 19 4 1 61 90 11 5 40 185 151 418 438 458 442 291 182 125 300 328
1 2 5 1 4 19 27 35 21 25 10 4 31 36 37 36 1 43 51 24 5 0 0 1 1 4 10 21 33 28 6 14 172 302 362 495 626 414 339 327 263 251 312 303
0 0 0 0 0 1 3 23 42 43 39 32 25 21 11 1 10 22 37 19 0 0 0 0 51 68 113 69 28 9 0 17 171 209 224 190 244 364 281 264 281 283 275 283
0 0 0 0 0 3 32 46 47 36 1 0 0 1 0 0 0 0 8 22 0 0 0 5 7 7 4 0 0 0 0 0 0 30 154 272 246 241 286 278 274 266 293 293
0 0 0 0 0 11 22 16 0 0 0 0 0 0 0 0 0 0 0 0 0 0 0 0 0 0 0 0 0 0 0 5 23 26 50 86 134 186 194 216 252 239 203 303
0 0 0 0 0 0 0 0 0 0 0 0 0 0 0 0 0 0 0 0 0 0 0 0 0 0 0 0 0 0 0 2 5 11 5 30 52 105 175 222 172 130 136 145
0 0 0 0 0 0 0 0 0 0 0 0 0 0 0 0 0 0 0 0 0 0 0 0 0 0 0 0 0 0 0 5 5 6 1 36 56 336 673 236 57 49 49 75
CIN
-37 -65 -1 -32 -52 -126 -94 -78 -111 -96 -87 -84 -49 -26 -84 -83 -60 -47 -50 -72 -62 -340 -273 -330 -302 -287 -285 -304 -244 -438 -360 -309 -206 -242 -254 -212 -198 -182 -226 -198 -175 -168 -151 -91
-128 -31 -39 -82 -104 -174 -176 -143 -122 -144 -131 -115 -62 -50 -163 -83 -72 -59 -56 -55 -53 -158 -240 -237 -257 -276 -248 -231 -235 -239 -392 -310 -257 -283 -311 -321 -297 -297 -270 -277 -277 -208 -164 -214
-88 -16 -74 -32 -133 -66 -81 -146 -158 -135 -109 -115 -83 -104 -60 -83 -68 -81 -74 -49 -55 -45 -145 -206 -231 -242 -248 -217 -221 -232 -223 -307 -336 -326 -342 -347 -353 -372 -387 -382 -405 -368 -276 -216
-229 -232 -175 -60 -66 -87 -69 -108 -151 -138 -55 -43 -73 -25 -59 -72 -60 -53 -37 -45 -46 -44 -40 -28 -207 -87 -111 -110 -251 -251 -215 -255 -260 -257 -513 -438 -369 -373 -348 -323 -331 -339 -288 -167
-21 -22 -72 -72 -38 -89 -50 -30 -102 -42 -38 -71 -86 -83 -0 -60 -66 -66 -65 -39 -56 -66 -59 -46 -45 -59 -62 -72 -66 -93 -248 -204 -162 -137 -119 -122 -424 -427 -371 -318 -287 -216 -126 -105
-168 -181 -198 -100 -70 -35 -25 -40 -10 -3 -13 -3 -48 -72 -0 -64 -60 -57 -45 -55 -41 -63 -66 -49 -38 -40 -59 -67 -63 -51 -73 -107 -126 -122 -110 -104 -104 -83 -87 -266 -307 -233 -174 -119
-45 -43 -90 -175 -33 -38 -39 -29 -18 -19 -21 -17 -1 -0 -0 -41 -86 -131 -42 -55 -50 -61 -61 -53 -41 -37 -45 -44 -46 -48 -52 -65 -102 -116 -556 -94 -85 -59 -63 -52 -59 -87 -126 -222
-49 -23 -22 -19 -20 -18 -18 -4 -15 -11 -15 -1 -0 -0 -0 -0 -45 -123 -86 -58 -48 -199 -131 -66 -45 -63 -54 -44 -41 -55 -32 -38 -51 -52 -50 -110 -48 -57 -31 -27 -31 -50 -78 -193
-47 -8 -10 -12 -19 -0 -0 -0 -0 -0 -38 -0 -0 -0 -0 -0 -57 -20 -0 -0 -0 -34 -159 -115 -85 -76 -75 -54 -53 -36 -44 -52 -22 -33 -28 -38 -430 -52 -291 -153 -76 -82 -123 -106
-42 -55 -24 -0 -0 -0 -0 -0 -0 -0 -0 -0 -0 -0 -0 -0 -0 -0 -0 -0 -0 -36 -114 -218 -181 -159 -140 -111 -85 -69 -46 -51 -153 -299 -241 -290 -196 -150 -135 -24 -3 -109 -17 -44
-77 -96 -59 -0 -0 -0 -0 -0 -0 -0 -0 -0 -0 -0 -0 -0 -0 -0 -0 -74 -90 -105 -163 -154 -127 -150 -136 -114 -85 -115 -139 -463 -339 -314 -321 -227 -174 -113 -118 -55 -42 -348 -184 -59
-45 -60 -66 -66 -78 -0 -0 -0 -0 -0 -0 -0 -0 -0 -0 -0 -20 -189 -169 -177 -160 -147 -175 -159 -158 -171 -166 -148 -158 -109 -413 -281 -196 -136 -103 -104 -55 -108 -51 -465 -443 -538 -181 -40
-30 -27 -51 -0 -0 -0 -0 -0 -0 -0 -0 -0 -0 -28 -245 -209 -25 -135 -163 -152 -166 -159 -184 -164 -144 -339 -340 -262 -189 -121 -205 -119 -48 -88 -112 -88 -64 -36 -48 -102 -301 -79 -27 -37
-23 -27 -50 -17 -0 -0 -0 -0 -0 -0 -0 -0 -0 -0 -0 -265 -230 -212 -200 -180 -222 -386 -400 -394 -331 -232 -182 -120 -80 -79 -56 -26 -19 -35 -34 -73 -63 -138 -161 -269 -39 -27 -47 -67
-147 -68 -25 -0 -0 -0 -0 -0 -0 -0 -0 -18 -70 -122 -101 -310 -91 -73 -57 -39 -469 -482 -482 -450 -395 -407 -338 -285 -133 -37 -7 -3 -72 -60 -93 -118 -118 -197 -271 -306 -150 -59 -33 -39
-38 -36 -0 -0 -0 -0 -0 -0 -0 -0 -53 -179 -152 -77 -80 -67 -44 -34 -35 -478 -457 -413 -446 -402 -380 -381 -336 -290 -272 -223 -145 -81 -116 -238 -249 -215 -97 -60 -58 -76 -44 -62 -104 -63
-73 -94 -0 -106 -0 -0 -0 -0 -0 -71 -150 -123 -67 -37 -41 -40 -39 -41 -48 -425 -423 -326 -353 -312 -276 -254 -233 -231 -233 -239 -142 -70 -55 -61 -158 -155 -167 -144 -151 -127 -110 -85 -124 -73
-0 -0 -0 -0 -0 -0 -0 -0 -114 -108 -102 -91 -89 -74 -65 -53 -67 -74 -265 -402 -401 -329 -214 -237 -300 -343 -273 -203 -211 -142 -93 -144 -132 -88 -57 -88 -118 -106 -94 -72 -87 -114 -88 -67
-59 -0 -0 -0 -0 -0 -116 -2 -74 -32 -16 -100 -92 -40 -34 -42 -79 -406 -373 -357 -327 -313 -289 -207 -315 -366 -407 -200 -128 -127 -126 -88 -93 -63 -39 -46 -51 -36 -31 -37 -77 -117 -50 -76
-0 -0 -39 -78 -69 -0 -4 -87 -47 -24 -41 -0 -46 -22 -32 -50 -72 -98 -353 -325 -372 -306 -0 -0 -310 -324 -3 -35 -186 -183 -101 -55 -69 -24 -20 -47 -25 -37 -47 -54 -63 -85 -55 -40
-3 -4 -63 -37 -15 -13 -44 -43 -69 -88 -38 -42 -67 -55 -71 -145 -130 -294 -303 -326 -279 -0 -0 -0 -1 -70 -62 -29 -49 -25 -10 -85 -50 -42 -41 -47 -49 -48 -64 -63 -77 -91 -88 -89
-0 -0 -0 -0 -0 -9 -61 -125 -77 -80 -76 -68 -75 -143 -187 -169 -413 -329 -296 -300 -0 -0 -0 -0 -167 -106 -44 -36 -10 -1 -0 -84 -93 -58 -67 -117 -59 -53 -76 -52 -57 -84 -102 -104
-0 -0 -0 -0 -0 -98 -119 -124 -106 -74 -7 -0 -91 -82 -0 -0 -0 -0 -335 -247 -0 -0 -25 -36 -22 -18 -39 -7 -0 -0 -0 -0 -0 -92 -90 -68 -65 -73 -76 -65 -60 -71 -53 -33
-0 -0 -0 -0 -0 -151 -159 -150 -0 -0 -0 -0 -0 -0 -0 -0 -0 -0 -0 -0 -0 -0 -0 -0 -0 -0 -0 -0 -0 -0 -0 -27 -53 -66 -67 -61 -98 -85 -88 -61 -62 -45 -39 -20
-0 -0 -0 -9 -0 -0 -0 -0 -0 -0 -0 -0 -0 -0 -0 -0 -0 -0 -0 -0 -0 -0 -0 -0 -0 -0 -0 -0 -0 -0 -0 -20 -43 -36 -71 -75 -99 -109 -78 -62 -60 -34 -48 -27
-0 -0 -0 -0 -0 -0 -0 -0 -0 -0 -0 -0 -0 -0 -0 -0 -0 -0 -0 -0 -0 -0 -0 -0 -0 -0 -0 -0 -0 -0 -0 -0 -0 -0 -0 -64 -59 -6 -0 -33 -79 -129 -95 -57
Wind_Speed
14 9 nan 28 17 22 22 19 21 24 24 16 18 15 nan 19 16 20 20 19 18 nan nan nan nan 17 15 14 15 18 17 17 15 11 10 7 11 8 7 9 11 11 13 15
21 nan 25 22 25 24 24 27 26 32 26 14 15 19 9 12 15 18 24 19 20 nan nan nan nan nan 11 14 14 12 16 15 14 13 15 13 12 9 11 12 14 16 18 19
nan 19 14 20 23 24 22 20 22 21 17 14 6 15 16 9 9 12 20 21 21 20 nan nan nan 16 13 13 15 15 16 16 17 17 11 9 9 9 15 15 16 19 23 23
12 15 16 20 23 13 14 nan nan nan 12 12 10 nan 20 14 13 12 21 24 29 26 20 20 23 22 26 21 16 20 20 25 27 27 24 20 14 13 14 15 15 16 20 26
20 14 15 25 17 8 nan nan nan 14 5 7 8 nan nan 8 8 12 21 21 30 31 29 28 31 28 26 22 22 20 25 25 29 32 26 25 28 23 19 19 21 22 19 17
16 13 10 16 18 10 22 nan nan nan nan nan 9 4 nan nan 9 7 11 25 33 32 27 24 28 27 25 25 18 20 20 23 33 30 33 35 36 32 29 27 24 22 22 25
24 13 12 17 nan nan nan nan nan nan nan nan nan nan nan nan nan nan 18 28 32 30 27 25 29 28 31 33 23 24 31 30 35 38 38 39 38 36 34 36 31 26 25 26
14 24 20 22 12 12 nan nan nan nan nan nan nan nan nan nan nan nan nan 23 23 24 26 29 35 31 32 34 34 35 36 34 33 37 40 41 41 41 41 38 37 30 31 32
16 nan 29 20 nan nan nan nan nan nan nan nan nan nan nan nan nan nan nan nan nan nan 28 35 36 37 32 28 28 34 35 34 36 37 35 36 40 44 41 51 52 29 26 32
20 23 nan nan nan nan nan nan nan nan nan nan nan nan nan nan nan nan nan nan nan nan nan 19 20 24 23 26 27 25 26 30 34 38 38 45 57 60 59 79 nan 32 30 31
nan nan nan nan nan nan nan nan nan nan nan nan nan nan nan nan nan nan nan nan nan nan 24 26 26 29 30 30 31 32 35 36 36 44 50 57 51 58 60 55 41 nan nan 27
nan 19 20 18 nan nan nan nan nan nan nan nan nan nan nan nan nan nan 20 23 21 25 25 27 30 31 33 35 37 41 48 47 48 48 44 39 45 45 44 47 45 38 nan 39
23 25 nan nan nan nan nan nan nan nan nan nan nan nan nan nan nan nan nan nan 30 34 34 35 35 38 42 47 47 47 48 49 50 45 47 51 44 42 40 42 41 40 40 34
nan nan nan nan nan nan nan nan nan nan nan nan nan nan nan nan nan nan nan nan 38 40 37 37 41 46 51 49 48 49 47 47 48 48 49 50 44 41 39 42 43 46 46 45
nan 15 nan nan nan nan nan nan nan nan nan nan nan nan nan nan nan 30 32 39 43 43 46 51 55 54 53 49 49 47 44 44 45 44 44 42 46 52 47 nan 47 44 47 46
nan nan nan nan nan nan nan nan nan nan nan nan nan nan 28 30 29 31 37 46 50 54 56 56 53 49 51 52 50 47 47 47 49 48 47 49 50 51 51 51 51 54 49 47
nan nan nan nan nan nan nan nan nan nan nan nan 25 19 26 28 35 38 nan nan nan 49 47 45 45 48 49 49 51 53 52 52 51 52 52 52 52 52 53 53 55 51 50 48
nan nan nan nan nan nan nan nan nan nan nan nan nan nan nan nan nan nan nan nan nan 49 49 49 51 53 53 53 54 54 56 55 54 54 55 56 58 57 57 57 51 49 52 49
nan nan nan nan nan nan nan nan nan nan nan nan nan nan nan nan nan nan nan nan nan nan nan 52 nan nan nan 51 54 56 56 58 60 60 60 58 57 54 54 52 nan nan 47 41
nan nan nan nan nan nan nan nan nan nan nan nan nan nan nan nan nan nan nan nan nan nan nan nan nan nan nan nan nan nan nan nan nan 58 59 60 58 56 50 45 44 45 47 41
nan nan nan nan nan nan nan nan nan nan nan nan nan nan nan nan nan nan nan nan nan nan nan nan nan nan nan nan nan nan nan nan 49 55 54 54 52 46 44 41 39 37 36 34
nan nan nan nan nan nan nan nan nan nan nan nan nan nan nan nan nan nan nan nan nan nan nan nan nan nan 48 nan nan nan nan nan 48 47 44 46 45 45 38 32 28 20 27 27
nan nan nan nan nan nan nan nan nan nan nan nan nan nan nan nan nan nan nan nan nan nan nan nan nan nan nan nan nan nan nan nan nan nan 42 32 27 19 18 25 25 25 30 29
nan nan nan nan nan nan nan nan nan nan nan nan nan nan nan nan nan nan nan nan nan nan nan nan nan nan nan nan nan nan nan nan nan nan nan nan 23 17 19 24 28 27 24 26
nan nan nan nan nan nan nan nan nan nan nan nan nan nan nan nan nan nan nan nan nan nan nan nan nan nan nan nan nan nan nan nan nan nan nan nan nan 20 18 22 24 24 21 24
nan nan nan nan nan nan nan nan nan nan nan nan nan nan nan nan nan nan nan nan nan nan nan nan nan nan nan nan nan nan nan nan nan nan nan nan nan 18 19 16 nan nan nan nan
Wind_Direction
188 182 nan 97 110 119 107 111 106 98 90 89 69 54 nan 41 64 64 67 60 52 nan nan nan nan 41 38 33 37 37 22 19 6 357 354 349 1 346 348 358 359 351 345 348
175 nan 86 110 101 94 105 105 95 105 92 82 80 71 38 47 67 54 54 45 48 nan nan nan nan nan 10 13 14 18 20 7 6 5 356 347 336 339 335 330 329 332 331 334
nan 109 119 117 119 104 102 94 97 92 141 154 105 98 70 94 98 74 46 40 44 32 nan nan nan 18 3 1 357 354 356 354 351 351 313 307 307 307 308 314 309 319 321 323
116 136 119 132 112 106 131 nan nan nan 89 79 140 nan 88 83 96 51 43 38 44 40 43 38 35 15 17 16 5 14 358 2 2 350 340 340 333 327 316 303 309 313 320 324
153 161 142 141 145 158 nan nan nan 52 78 96 111 nan nan 101 121 78 37 33 44 54 48 45 41 40 44 29 19 13 20 15 11 -0 0 351 343 330 316 310 314 316 309 309
160 174 187 161 160 104 112 nan nan nan nan nan 48 9 nan nan 85 91 50 44 50 46 44 49 45 35 35 23 25 25 17 9 350 346 345 344 340 335 313 309 307 304 302 303
177 146 175 182 nan nan nan nan nan nan nan nan nan nan nan nan nan nan 43 39 44 46 40 28 27 20 14 18 26 1 358 5 350 344 341 341 335 327 320 312 306 307 303 294
191 179 182 177 153 140 nan nan nan nan nan nan nan nan nan nan nan nan nan 43 31 32 30 16 16 11 10 9 0 349 348 354 348 342 336 329 327 313 310 302 298 289 313 306
180 nan 175 164 nan nan nan nan nan nan nan nan nan nan nan nan nan nan nan nan nan nan 15 15 10 357 354 350 341 339 339 345 338 333 324 320 307 299 270 261 261 263 270 296
162 158 nan nan nan nan nan nan nan nan nan nan nan nan nan nan nan nan nan nan nan nan nan 325 332 322 320 322 325 317 300 306 305 309 312 302 297 294 291 283 nan 259 241 258
nan nan nan nan nan nan nan nan nan nan nan nan nan nan nan nan nan nan nan nan nan nan 320 323 325 318 315 312 306 308 310 313 309 309 311 300 298 295 284 292 328 nan nan 244
nan 164 171 157 nan nan nan nan nan nan nan nan nan nan nan nan nan nan 296 304 308 306 303 299 300 301 303 308 306 301 303 303 303 306 302 298 307 305 310 315 315 321 nan 327
159 176 nan nan nan nan nan nan nan nan nan nan nan nan nan nan nan nan nan nan 305 310 301 299 297 297 297 296 295 299 302 303 306 307 301 294 299 305 307 310 317 320 302 282
nan nan nan nan nan nan nan nan nan nan nan nan nan nan nan nan nan nan nan nan 303 298 293 285 284 289 290 292 293 296 299 301 305 307 305 304 300 300 302 301 295 291 288 296
nan 180 nan nan nan nan nan nan nan nan nan nan nan nan nan nan nan 291 296 291 290 291 283 282 285 286 288 287 289 292 293 294 296 294 291 290 293 301 303 nan 304 296 296 305
nan nan nan nan nan nan nan nan nan nan nan nan nan nan 277 279 292 287 281 284 280 276 278 281 285 285 287 288 292 294 296 297 298 296 297 297 297 299 301 300 302 303 304 305
nan nan nan nan nan nan nan nan nan nan nan nan 292 298 289 287 280 276 nan nan nan 291 297 297 295 295 296 299 302 301 303 303 301 301 300 299 297 295 294 294 295 293 297 300
nan nan nan nan nan nan nan nan nan nan nan nan nan nan nan nan nan nan nan nan nan 304 306 306 306 305 305 307 305 303 302 304 302 301 300 299 297 294 292 292 293 295 299 302
nan nan nan nan nan nan nan nan nan nan nan nan nan nan nan nan nan nan nan nan nan nan nan 311 nan nan nan 308 309 308 306 304 302 303 302 299 295 294 293 292 nan nan 294 296
nan nan nan nan nan nan nan nan nan nan nan nan nan nan nan nan nan nan nan nan nan nan nan nan nan nan nan nan nan nan nan nan nan 313 312 307 302 300 298 297 297 299 302 304
nan nan nan nan nan nan nan nan nan nan nan nan nan nan nan nan nan nan nan nan nan nan nan nan nan nan nan nan nan nan nan nan 314 314 312 303 297 297 295 294 294 294 294 294
nan nan nan nan nan nan nan nan nan nan nan nan nan nan nan nan nan nan nan nan nan nan nan nan nan nan 308 nan nan nan nan nan 315 314 311 313 295 290 292 291 295 296 291 292
nan nan nan nan nan nan nan nan nan nan nan nan nan nan nan nan nan nan nan nan nan nan nan nan nan nan nan nan nan nan nan nan nan nan 325 335 339 329 306 294 284 303 306 304
nan nan nan nan nan nan nan nan nan nan nan nan nan nan nan nan nan nan nan nan nan nan nan nan nan nan nan nan nan nan nan nan nan nan nan nan 332 329 315 305 305 308 303 304
nan nan nan nan nan nan nan nan nan nan nan nan nan nan nan nan nan nan nan nan nan nan nan nan nan nan nan nan nan nan nan nan nan nan nan nan nan 330 315 311 308 308 315 322
nan nan nan nan nan nan nan nan nan nan nan nan nan nan nan nan nan nan nan nan nan nan nan nan nan nan nan nan nan nan nan nan nan nan nan nan nan 318 316 312 nan nan nan nan